Weerpagina Nieuwendam Historical Data
 
Daily Summary for May 20, 2024 Units:  Metric    English   Both
Daily Weekly Monthly Yearly
  Current: High: Low: Average:
Temperature: 18.7 °C 21.2 °C 13.9 °C 17 °C
Dew Point: 15.9 °C 16.5 °C 12.8 °C 14.5 °C
Humidity: 84% 94% 70.6% 86%
Wind Speed: 11.7km/h 23.3km/h 0km/h 8.6km/h
Wind Gust: 9.7km/h 29km/h - -
WindNNE - - SSW
Pressure: 1008.9 hPa 1011.0 hPa 1008.9 hPa -
Precipitation: 0.0 mm      
 
 
Tabular Data for May 20, 2024
Time Temperature Dew Point Pressure Wind Wind Speed Wind Gust Humidity Rainfall Rate (Hourly) solar
00:04 15.3 °C 13.5 °C 1011.0 hPa NW 4.3 km/h 12.9 km/h 89% 0.0 mm 0 W/m2
00:09 15.2 °C 13.4 °C 1011.0 hPa North 6.6 km/h 3.7 km/h 89% 0.0 mm 0 W/m2
00:14 15.1 °C 13.3 °C 1011.0 hPa NNW 8.3 km/h 5.6 km/h 89% 0.0 mm 0 W/m2
00:19 15 °C 13.2 °C 1011.0 hPa NNW 5.2 km/h 12.9 km/h 89% 0.0 mm 0 W/m2
00:24 15 °C 13.3 °C 1011.0 hPa NNW 5.1 km/h 4.2 km/h 89.5% 0.0 mm 0 W/m2
00:29 14.9 °C 13.2 °C 1011.0 hPa NW 5 km/h 3.9 km/h 89.3% 0.0 mm 0 W/m2
00:34 14.8 °C 13.2 °C 1011.0 hPa NW 3.6 km/h 8 km/h 90% 0.0 mm 0 W/m2
00:39 14.8 °C 13.2 °C 1011.0 hPa NNW 6.8 km/h 3.5 km/h 90% 0.0 mm 0 W/m2
00:44 14.8 °C 13.2 °C 1011.0 hPa NW 5.1 km/h 3.4 km/h 90% 0.0 mm 0 W/m2
00:48 14.7 °C 13.1 °C 1011.0 hPa NNW 4.2 km/h 9.7 km/h 90% 0.0 mm 0 W/m2
00:54 14.7 °C 13 °C 1011.0 hPa NNW 8.8 km/h 5 km/h 90% 0.0 mm 0 W/m2
00:58 14.6 °C 13 °C 1011.0 hPa North 5.4 km/h 5.5 km/h 90% 0.0 mm 0 W/m2
01:04 14.6 °C 13.1 °C 1011.0 hPa NNW 6.6 km/h 4.5 km/h 91% 0.0 mm 0 W/m2
01:09 14.5 °C 13.1 °C 1010.9 hPa NNE 5 km/h 4.2 km/h 91% 0.0 mm 0 W/m2
01:14 14.5 °C 13.1 °C 1010.9 hPa North 8 km/h 6.1 km/h 91% 0.0 mm 0 W/m2
01:19 14.5 °C 13.1 °C 1010.9 hPa NNW 5.8 km/h 12.9 km/h 91% 0.0 mm 0 W/m2
01:24 14.5 °C 13.1 °C 1010.9 hPa NNW 5.9 km/h 3.7 km/h 91% 0.0 mm 0 W/m2
01:29 14.5 °C 13.1 °C 1010.9 hPa NNW 10 km/h 5 km/h 91% 0.0 mm 0 W/m2
01:34 14.5 °C 13.2 °C 1010.9 hPa NNW 6.5 km/h 5.6 km/h 91.7% 0.0 mm 0 W/m2
01:39 14.6 °C 13.3 °C 1010.9 hPa NNW 4.2 km/h 2.7 km/h 92% 0.0 mm 0 W/m2
01:44 14.6 °C 13.3 °C 1010.9 hPa NNW 3.7 km/h 2.7 km/h 92% 0.0 mm 0 W/m2
01:49 14.6 °C 13.3 °C 1010.9 hPa NNW 6.5 km/h 12.9 km/h 92% 0.0 mm 0 W/m2
01:54 14.6 °C 13.3 °C 1010.9 hPa North 5.9 km/h 5.3 km/h 92% 0.0 mm 0 W/m2
01:59 14.6 °C 13.3 °C 1011.0 hPa NNW 7.8 km/h 5 km/h 92% 0.0 mm 0 W/m2
02:03 14.6 °C 13.3 °C 1011.0 hPa North 5.6 km/h 3.1 km/h 92% 0.0 mm 0 W/m2
02:09 14.6 °C 13.3 °C 1011.0 hPa NNW 5.6 km/h 3.9 km/h 92% 0.0 mm 0 W/m2
02:14 14.6 °C 13.3 °C 1010.9 hPa NNW 8.5 km/h 5.3 km/h 92% 0.0 mm 0 W/m2
02:19 14.6 °C 13.3 °C 1010.9 hPa NNW 4.4 km/h 12.9 km/h 92% 0.0 mm 0 W/m2
02:24 14.6 °C 13.3 °C 1010.9 hPa NNW 3.4 km/h 3.5 km/h 92% 0.0 mm 0 W/m2
02:29 14.5 °C 13.3 °C 1010.9 hPa NNW 5.1 km/h 3.5 km/h 92% 0.0 mm 0 W/m2
02:34 14.5 °C 13.3 °C 1010.9 hPa NNW 5.5 km/h 4.2 km/h 92% 0.0 mm 0 W/m2
02:39 14.5 °C 13.2 °C 1010.8 hPa NNW 3.3 km/h 2.7 km/h 92% 0.0 mm 0 W/m2
02:44 14.5 °C 13.2 °C 1010.9 hPa NW 5.2 km/h 4.2 km/h 92% 0.0 mm 0 W/m2
02:49 14.4 °C 13.2 °C 1010.9 hPa NW 4.2 km/h 4.3 km/h 92% 0.0 mm 0 W/m2
02:54 14.4 °C 13.1 °C 1010.9 hPa NNW 4.4 km/h 2.1 km/h 92% 0.0 mm 0 W/m2
02:59 14.4 °C 13.1 °C 1010.8 hPa NW 4.8 km/h 6.4 km/h 92% 0.0 mm 0 W/m2
03:04 14.3 °C 13.1 °C 1010.9 hPa NW 4.2 km/h 3.1 km/h 92% 0.0 mm 0 W/m2
03:09 14.3 °C 13 °C 1010.8 hPa NW 3.7 km/h 1 km/h 92% 0.0 mm 0 W/m2
03:14 14.3 °C 13 °C 1010.8 hPa NW 3.3 km/h 1.4 km/h 92% 0.0 mm 0 W/m2
03:19 14.2 °C 12.9 °C 1010.7 hPa NW 2.8 km/h 9.7 km/h 92% 0.0 mm 0 W/m2
03:24 14.2 °C 12.9 °C 1010.7 hPa NNW 4.4 km/h 2.7 km/h 92% 0.0 mm 0 W/m2
03:28 14.2 °C 13 °C 1010.6 hPa NW 4.8 km/h 3.5 km/h 92% 0.0 mm 0 W/m2
03:34 14.3 °C 13 °C 1010.6 hPa NNW 4.5 km/h 3.5 km/h 92% 0.0 mm 0 W/m2
03:39 14.3 °C 13 °C 1010.6 hPa NW 4.1 km/h 4.2 km/h 92% 0.0 mm 0 W/m2
03:44 14.3 °C 13.1 °C 1010.7 hPa NNW 8.4 km/h 4.5 km/h 92% 0.0 mm 0 W/m2
03:49 14.4 °C 13.2 °C 1010.6 hPa NNW 4.7 km/h 4.5 km/h 92.5% 0.0 mm 0 W/m2
03:53 14.4 °C 13.3 °C 1010.6 hPa NNW 6.4 km/h 3.7 km/h 93% 0.0 mm 0 W/m2
03:59 14.4 °C 13.3 °C 1010.7 hPa NW 4.1 km/h 4.5 km/h 93% 0.0 mm 0 W/m2
04:04 14.4 °C 13.2 °C 1010.7 hPa NNW 5.9 km/h 3.2 km/h 93% 0.0 mm 0 W/m2
04:09 14.3 °C 13.2 °C 1010.6 hPa North 4.2 km/h 3.5 km/h 93% 0.0 mm 0 W/m2
04:14 14.3 °C 13.2 °C 1010.6 hPa NNW 5.6 km/h 5.6 km/h 93% 0.0 mm 0 W/m2
04:19 14.3 °C 13.2 °C 1010.7 hPa NNW 8 km/h 9.7 km/h 93% 0.0 mm 0 W/m2
04:24 14.3 °C 13.2 °C 1010.6 hPa NNW 7.5 km/h 3.7 km/h 93% 0.0 mm 0 W/m2
04:29 14.2 °C 13.1 °C 1010.6 hPa NNW 6.2 km/h 6.1 km/h 93% 0.0 mm 0 W/m2
04:34 14.2 °C 13.1 °C 1010.6 hPa NNW 5.1 km/h 3.7 km/h 93% 0.0 mm 0 W/m2
04:39 14.2 °C 13.1 °C 1010.6 hPa NNW 4 km/h 2.9 km/h 93% 0.0 mm 0 W/m2
04:44 14.2 °C 13.1 °C 1010.5 hPa NW 4.1 km/h 3.9 km/h 93% 0.0 mm 0 W/m2
04:49 14.2 °C 13.1 °C 1010.6 hPa West 5.6 km/h 3.5 km/h 93% 0.0 mm 0 W/m2
04:54 14.2 °C 13.1 °C 1010.6 hPa West 4.8 km/h 4.7 km/h 93% 0.0 mm 0 W/m2
04:59 14.1 °C 13 °C 1010.6 hPa NNW 4.3 km/h 3.9 km/h 93% 0.0 mm 0 W/m2
05:04 14.1 °C 13 °C 1010.5 hPa NNW 7.9 km/h 12.9 km/h 93% 0.0 mm 0 W/m2
05:09 14.1 °C 13 °C 1010.5 hPa NNW 3.7 km/h 4 km/h 93% 0.0 mm 0 W/m2
05:14 14.1 °C 13 °C 1010.5 hPa NNW 3.6 km/h 4.3 km/h 93% 0.0 mm 0 W/m2
05:19 14.1 °C 13 °C 1010.5 hPa NNW 3.3 km/h 11.3 km/h 93% 0.0 mm 0 W/m2
05:24 14.1 °C 13 °C 1010.5 hPa NW 5.6 km/h 4.5 km/h 93% 0.0 mm 0 W/m2
05:29 14.1 °C 13 °C 1010.5 hPa NW 4.2 km/h 1.6 km/h 93% 0.0 mm 0 W/m2
05:34 14.1 °C 12.9 °C 1010.5 hPa NNW 6.1 km/h 9.7 km/h 93% 0.0 mm 0 W/m2
05:38 14.1 °C 12.9 °C 1010.4 hPa North 5.5 km/h 5.5 km/h 93% 0.0 mm 0 W/m2
05:44 14.1 °C 12.9 °C 1010.4 hPa WNW 4.9 km/h 2.7 km/h 93% 0.0 mm 0 W/m2
05:49 14.1 °C 12.9 °C 1010.5 hPa NW 2.9 km/h 8 km/h 93% 0.0 mm 0 W/m2
05:53 14.1 °C 12.9 °C 1010.6 hPa NNW 7.1 km/h 4.2 km/h 93% 0.0 mm 0 W/m2
05:59 14 °C 12.9 °C 1010.6 hPa NW 7.3 km/h 4.7 km/h 93% 0.0 mm 0 W/m2
06:04 14 °C 12.9 °C 1010.6 hPa North 6.9 km/h 12.9 km/h 93% 0.0 mm 0 W/m2
06:09 14 °C 12.8 °C 1010.7 hPa North 6.8 km/h 3.9 km/h 93% 0.0 mm 0 W/m2
06:14 14 °C 12.9 °C 1010.6 hPa NW 8.6 km/h 3.7 km/h 93% 0.0 mm 5 W/m2
06:19 14 °C 12.9 °C 1010.6 hPa NNW 3.8 km/h 9.7 km/h 93% 0.0 mm 5 W/m2
06:24 13.9 °C 12.8 °C 1010.7 hPa NNW 3.2 km/h 2.1 km/h 93% 0.0 mm 5 W/m2
06:29 14 °C 12.9 °C 1010.7 hPa NNW 5.6 km/h 3.7 km/h 93% 0.0 mm 9 W/m2
06:34 14 °C 12.9 °C 1010.7 hPa WNW 4.1 km/h 9.7 km/h 93% 0.0 mm 9 W/m2
06:39 14 °C 13 °C 1010.7 hPa WNW 3.4 km/h 2.3 km/h 93.6% 0.0 mm 12 W/m2
06:44 14 °C 13.1 °C 1010.7 hPa NW 8.5 km/h 3.4 km/h 94% 0.0 mm 14 W/m2
06:49 14 °C 13.1 °C 1010.7 hPa NW 5.5 km/h 9.7 km/h 94% 0.0 mm 14 W/m2
06:54 14.1 °C 13.1 °C 1010.8 hPa WNW 3.6 km/h 1.9 km/h 94% 0.0 mm 12 W/m2
06:59 14.1 °C 13.2 °C 1010.7 hPa West 5.7 km/h 4.2 km/h 94% 0.0 mm 11 W/m2
07:04 14.1 °C 13.2 °C 1010.7 hPa West 3.8 km/h 6.4 km/h 94% 0.0 mm 7 W/m2
07:09 14.2 °C 13.3 °C 1010.6 hPa West 3.5 km/h 1.8 km/h 94% 0.0 mm 11 W/m2
07:14 14.2 °C 13.3 °C 1010.6 hPa West 3.8 km/h 1.4 km/h 94% 0.0 mm 11 W/m2
07:19 14.3 °C 13.3 °C 1010.6 hPa West 1.6 km/h 3.2 km/h 94% 0.0 mm 16 W/m2
07:24 14.3 °C 13.3 °C 1010.6 hPa WSW 6.1 km/h 5 km/h 94% 0.0 mm 28 W/m2
07:29 14.3 °C 13.4 °C 1010.6 hPa WSW 5.4 km/h 3.2 km/h 94% 0.0 mm 39 W/m2
07:34 14.3 °C 13.4 °C 1010.6 hPa WSW 4.1 km/h 9.7 km/h 94% 0.0 mm 40 W/m2
07:39 14.4 °C 13.5 °C 1010.6 hPa WSW 5.4 km/h 2.9 km/h 94% 0.0 mm 49 W/m2
07:44 14.4 °C 13.5 °C 1010.6 hPa WSW 4.6 km/h 4 km/h 94% 0.0 mm 51 W/m2
07:49 14.5 °C 13.5 °C 1010.7 hPa West 4.6 km/h 6.4 km/h 94% 0.0 mm 49 W/m2
07:54 14.5 °C 13.6 °C 1010.6 hPa WNW 6.7 km/h 4.2 km/h 94% 0.0 mm 53 W/m2
07:59 14.6 °C 13.7 °C 1010.6 hPa NW 4.5 km/h 2.6 km/h 94% 0.0 mm 62 W/m2
08:04 14.7 °C 13.7 °C 1010.7 hPa West 3.7 km/h 8 km/h 94% 0.0 mm 58 W/m2
08:09 14.7 °C 13.8 °C 1010.6 hPa NW 6.1 km/h 3.9 km/h 94% 0.0 mm 65 W/m2
08:14 14.7 °C 13.6 °C 1010.7 hPa NNW 9.6 km/h 6.4 km/h 93% 0.0 mm 65 W/m2
08:18 14.8 °C 13.8 °C 1010.7 hPa NW 7 km/h 11.3 km/h 93.6% 0.0 mm 58 W/m2
08:24 14.9 °C 13.8 °C 1010.7 hPa WNW 4.6 km/h 3.9 km/h 93% 0.0 mm 60 W/m2
08:29 15 °C 13.9 °C 1010.7 hPa NW 5.2 km/h 4.3 km/h 93% 0.0 mm 79 W/m2
08:34 15 °C 13.9 °C 1010.7 hPa NW 5.8 km/h 8 km/h 93% 0.0 mm 90 W/m2
08:39 15.1 °C 14 °C 1010.7 hPa NW 7 km/h 3.9 km/h 93% 0.0 mm 88 W/m2
08:44 15.2 °C 14 °C 1010.7 hPa NNW 7 km/h 3.9 km/h 92.8% 0.0 mm 111 W/m2
08:49 15.3 °C 14 °C 1010.7 hPa WNW 6.9 km/h 9.7 km/h 92.1% 0.0 mm 111 W/m2
08:54 15.4 °C 14.2 °C 1010.7 hPa North 6.3 km/h 3.2 km/h 92.2% 0.0 mm 120 W/m2
08:58 15.5 °C 14.2 °C 1010.7 hPa WNW 6.7 km/h 6 km/h 92% 0.0 mm 178 W/m2
09:04 15.7 °C 14.4 °C 1010.7 hPa NNW 7 km/h 12.9 km/h 92% 0.0 mm 169 W/m2
09:08 15.8 °C 14.5 °C 1010.7 hPa NW 9.2 km/h 5.6 km/h 91.5% 0.0 mm 148 W/m2
09:14 15.9 °C 14.5 °C 1010.8 hPa NNW 9 km/h 6.1 km/h 91% 0.0 mm 158 W/m2
09:19 16 °C 14.5 °C 1010.9 hPa NNW 8.1 km/h 12.9 km/h 91% 0.0 mm 195 W/m2
09:24 16.1 °C 14.4 °C 1010.8 hPa North 11.5 km/h 10.6 km/h 90.3% 0.0 mm 156 W/m2
09:29 16.2 °C 14.5 °C 1010.8 hPa NW 6.5 km/h 5 km/h 90% 0.0 mm 278 W/m2
09:34 16.4 °C 14.7 °C 1010.7 hPa NW 5.9 km/h 12.9 km/h 90% 0.0 mm 239 W/m2
09:39 16.6 °C 14.9 °C 1010.7 hPa WNW 8.3 km/h 6 km/h 90% 0.0 mm 188 W/m2
09:44 16.8 °C 14.9 °C 1010.7 hPa NW 9.2 km/h 5.5 km/h 89% 0.0 mm 185 W/m2
09:49 16.8 °C 14.9 °C 1010.7 hPa WNW 4.7 km/h 9.7 km/h 88.6% 0.0 mm 229 W/m2
09:53 17 °C 15.1 °C 1010.6 hPa NW 8.8 km/h 5.1 km/h 88.4% 0.0 mm 234 W/m2
09:59 17.1 °C 15.1 °C 1010.7 hPa NNW 9.4 km/h 6.1 km/h 88% 0.0 mm 232 W/m2
10:04 17.2 °C 15.1 °C 1010.7 hPa NNW 7.9 km/h 12.9 km/h 87% 0.0 mm 241 W/m2
10:09 17.3 °C 15.2 °C 1010.6 hPa NNW 7 km/h 4.3 km/h 87% 0.0 mm 248 W/m2
10:14 17.4 °C 15.3 °C 1010.7 hPa WNW 12.3 km/h 7.4 km/h 87% 0.0 mm 346 W/m2
10:19 17.5 °C 15.1 °C 1010.8 hPa NNW 10.4 km/h 14.5 km/h 86.2% 0.0 mm 272 W/m2
10:24 17.5 °C 15.1 °C 1010.8 hPa North 10 km/h 6.1 km/h 86% 0.0 mm 278 W/m2
10:29 17.7 °C 15.3 °C 1010.8 hPa West 7.7 km/h 6.1 km/h 86% 0.0 mm 281 W/m2
10:34 17.9 °C 15.5 °C 1010.8 hPa SW 6 km/h 11.3 km/h 86% 0.0 mm 348 W/m2
10:38 18.1 °C 15.6 °C 1010.8 hPa NNW 11.5 km/h 7.6 km/h 85.2% 0.0 mm 257 W/m2
10:44 18.1 °C 15.6 °C 1010.8 hPa NNW 8.9 km/h 6.1 km/h 85% 0.0 mm 388 W/m2
10:49 18.2 °C 15.6 °C 1010.9 hPa NNW 8.2 km/h 14.5 km/h 84.8% 0.0 mm 348 W/m2
10:53 18.3 °C 15.5 °C 1010.9 hPa NNW 10.7 km/h 6.9 km/h 84% 0.0 mm 237 W/m2
10:59 18.3 °C 15.5 °C 1010.8 hPa NW 6.4 km/h 5.1 km/h 84% 0.0 mm 255 W/m2
11:03 18.3 °C 15.6 °C 1010.8 hPa NW 5.8 km/h 11.3 km/h 84% 0.0 mm 248 W/m2
11:09 18.4 °C 15.6 °C 1010.8 hPa NW 7.4 km/h 7.4 km/h 84% 0.0 mm 281 W/m2
11:14 18.4 °C 15.6 °C 1010.8 hPa North 7.1 km/h 6 km/h 84% 0.0 mm 276 W/m2
11:19 18.4 °C 15.6 °C 1010.8 hPa North 8.5 km/h 12.9 km/h 84% 0.0 mm 246 W/m2
11:24 18.4 °C 15.6 °C 1010.9 hPa NNW 7.3 km/h 8.7 km/h 84% 0.0 mm 258 W/m2
11:29 18.4 °C 15.6 °C 1010.9 hPa NNW 10.1 km/h 6.9 km/h 84% 0.0 mm 221 W/m2
11:34 18.4 °C 15.7 °C 1010.9 hPa NNW 7.5 km/h 12.9 km/h 84% 0.0 mm 341 W/m2
11:39 18.5 °C 15.8 °C 1010.9 hPa NNE 9.6 km/h 8 km/h 84% 0.0 mm 322 W/m2
11:44 18.5 °C 15.6 °C 1010.9 hPa NE 15.7 km/h 9.3 km/h 83.3% 0.0 mm 475 W/m2
11:49 18.5 °C 15.5 °C 1010.9 hPa North 16.1 km/h 19.3 km/h 83% 0.0 mm 471 W/m2
11:54 18.7 °C 15.7 °C 1010.8 hPa NNW 11.4 km/h 11.3 km/h 83% 0.0 mm 390 W/m2
11:59 18.8 °C 15.6 °C 1010.8 hPa NE 19.2 km/h 17.1 km/h 81.6% 0.0 mm 608 W/m2
12:04 18.8 °C 15.5 °C 1010.9 hPa NNE 13 km/h 22.5 km/h 81.2% 0.0 mm 364 W/m2
12:09 18.9 °C 15.6 °C 1010.8 hPa North 14 km/h 8.2 km/h 81% 0.0 mm 257 W/m2
12:14 18.9 °C 15.5 °C 1010.8 hPa NNW 11.9 km/h 9.5 km/h 80.5% 0.0 mm 253 W/m2
12:19 18.8 °C 15.4 °C 1010.8 hPa NNE 14.8 km/h 16.1 km/h 80.1% 0.0 mm 223 W/m2
12:24 19 °C 15.7 °C 1010.8 hPa NNE 10.4 km/h 8.4 km/h 81% 0.0 mm 947 W/m2
12:28 19.1 °C 15.7 °C 1010.8 hPa NNE 17.2 km/h 12.7 km/h 80.5% 0.0 mm 494 W/m2
12:34 19.3 °C 15.8 °C 1010.8 hPa NNW 10.2 km/h 19.3 km/h 80.3% 0.0 mm 933 W/m2
12:39 19.8 °C 16.1 °C 1010.8 hPa North 22.6 km/h 16.6 km/h 79.2% 0.0 mm 956 W/m2
12:44 20.2 °C 16.2 °C 1010.7 hPa North 14.2 km/h 8.7 km/h 78% 0.0 mm 940 W/m2
12:49 20.4 °C 16 °C 1010.6 hPa North 11.7 km/h 24.1 km/h 75.9% 0.0 mm 940 W/m2
12:54 20.8 °C 16.3 °C 1010.6 hPa NNE 11.9 km/h 10.1 km/h 75.8% 0.0 mm 956 W/m2
12:59 21 °C 16.2 °C 1010.6 hPa NNE 13.4 km/h 13 km/h 74.3% 0.0 mm 919 W/m2
13:04 21.2 °C 16.4 °C 1010.6 hPa North 16.4 km/h 22.5 km/h 74% 0.0 mm 914 W/m2
13:09 21 °C 16 °C 1010.6 hPa North 15.9 km/h 15.4 km/h 72.8% 0.0 mm 921 W/m2
13:14 21 °C 16 °C 1010.5 hPa NNE 17.5 km/h 9.3 km/h 73% 0.0 mm 904 W/m2
13:19 21 °C 15.9 °C 1010.5 hPa North 17.6 km/h 22.5 km/h 72.6% 0.0 mm 884 W/m2
13:24 20.8 °C 15.6 °C 1010.4 hPa NNE 16.7 km/h 12.4 km/h 72.3% 0.0 mm 422 W/m2
13:29 20.6 °C 15.8 °C 1010.4 hPa NE 11.9 km/h 6 km/h 74% 0.0 mm 255 W/m2
13:34 20.4 °C 15.6 °C 1010.4 hPa NE 9.2 km/h 20.9 km/h 74% 0.0 mm 364 W/m2
13:39 20.3 °C 15.6 °C 1010.3 hPa ENE 11.9 km/h 10.3 km/h 74.5% 0.0 mm 935 W/m2
13:44 20.3 °C 15.8 °C 1010.2 hPa North 11.8 km/h 6.4 km/h 75% 0.0 mm 506 W/m2
13:48 20.5 °C 15.8 °C 1010.2 hPa North 16.3 km/h 19.3 km/h 74.3% 0.0 mm 469 W/m2
13:54 20.6 °C 15.8 °C 1010.2 hPa NNE 14.9 km/h 14.5 km/h 73.8% 0.0 mm 469 W/m2
13:59 20.5 °C 15.5 °C 1010.1 hPa NE 18.2 km/h 11.9 km/h 73.2% 0.0 mm 673 W/m2
14:04 20.5 °C 15.5 °C 1010.2 hPa NE 12.1 km/h 19.3 km/h 73% 0.0 mm 970 W/m2
14:08 20.7 °C 15.6 °C 1010.1 hPa NE 14.3 km/h 11.4 km/h 72.4% 0.0 mm 633 W/m2
14:14 20.8 °C 15.5 °C 1010.0 hPa North 12.2 km/h 10.1 km/h 72% 0.0 mm 181 W/m2
14:19 20.6 °C 15.4 °C 1010.0 hPa NNE 12.4 km/h 14.5 km/h 72% 0.0 mm 265 W/m2
14:23 20.5 °C 15.5 °C 1010.0 hPa North 13.5 km/h 10.6 km/h 73% 0.0 mm 907 W/m2
14:29 20.7 °C 15.5 °C 1009.9 hPa North 13.5 km/h 9 km/h 72.2% 0.0 mm 364 W/m2
14:34 20.6 °C 15.2 °C 1009.9 hPa NNE 9.5 km/h 16.1 km/h 71.2% 0.0 mm 580 W/m2
14:39 20.5 °C 15.2 °C 1009.7 hPa NE 10.1 km/h 7.4 km/h 71.5% 0.0 mm 367 W/m2
14:44 20.5 °C 15.3 °C 1009.7 hPa NE 7 km/h 5 km/h 72.3% 0.0 mm 253 W/m2
14:49 20.5 °C 15.1 °C 1009.7 hPa ENE 10.5 km/h 12.9 km/h 71.2% 0.0 mm 464 W/m2
14:54 20.5 °C 15.2 °C 1009.8 hPa North 8.5 km/h 8.2 km/h 71.8% 0.0 mm 960 W/m2
14:59 20.8 °C 15.4 °C 1009.7 hPa NE 14.5 km/h 11.6 km/h 71.5% 0.0 mm 279 W/m2
15:04 20.7 °C 15.2 °C 1009.7 hPa NNE 15.3 km/h 24.1 km/h 70.6% 0.0 mm 258 W/m2
15:09 20.6 °C 15.1 °C 1009.5 hPa North 10 km/h 7.9 km/h 71% 0.0 mm 281 W/m2
15:14 20.5 °C 15 °C 1009.5 hPa North 14.4 km/h 13.5 km/h 71% 0.0 mm 221 W/m2
15:19 20.3 °C 15.4 °C 1009.5 hPa NE 12.6 km/h 16.1 km/h 73.1% 0.0 mm 526 W/m2
15:24 20.4 °C 15.6 °C 1009.5 hPa NE 12.4 km/h 8.9 km/h 73.8% 0.0 mm 306 W/m2
15:29 20.4 °C 15.4 °C 1009.5 hPa North 16.3 km/h 11.3 km/h 73.2% 0.0 mm 248 W/m2
15:34 20.1 °C 15.5 °C 1009.6 hPa North 15.4 km/h 20.9 km/h 75% 0.0 mm 179 W/m2
15:39 19.8 °C 15.7 °C 1009.6 hPa ENE 6.7 km/h 6.1 km/h 77.4% 0.0 mm 146 W/m2
15:44 19.6 °C 15.9 °C 1009.6 hPa North 7.8 km/h 7.7 km/h 79.4% 0.0 mm 151 W/m2
15:49 19.5 °C 16.2 °C 1009.5 hPa NNE 9.3 km/h 11.3 km/h 81% 0.0 mm 141 W/m2
15:54 19.3 °C 16.1 °C 1009.5 hPa North 9.4 km/h 6.1 km/h 82% 0.0 mm 111 W/m2
15:59 19.1 °C 15.7 °C 1009.6 hPa NE 16.1 km/h 12.7 km/h 81% 0.0 mm 72 W/m2
16:04 18.8 °C 15.5 °C 1009.5 hPa NNE 22.5 km/h 25.7 km/h 81% 0.0 mm 79 W/m2
16:09 18.6 °C 15.2 °C 1009.5 hPa North 20.3 km/h 16.6 km/h 81% 0.0 mm 86 W/m2
16:14 18.4 °C 15.2 °C 1009.5 hPa NNE 18.1 km/h 15 km/h 81.8% 0.0 mm 134 W/m2
16:19 18.4 °C 15.3 °C 1009.4 hPa North 16.4 km/h 29 km/h 82.3% 0.0 mm 705 W/m2
16:24 18.4 °C 15.2 °C 1009.4 hPa NNE 21.8 km/h 16.9 km/h 81.6% 0.0 mm 714 W/m2
16:28 18.6 °C 15.1 °C 1009.5 hPa NNE 20.5 km/h 16.1 km/h 80.2% 0.0 mm 782 W/m2
16:34 18.8 °C 14.8 °C 1009.4 hPa North 23.3 km/h 25.7 km/h 77.7% 0.0 mm 793 W/m2
16:39 18.7 °C 14.2 °C 1009.3 hPa NNW 17.5 km/h 14 km/h 75% 0.0 mm 239 W/m2
16:44 18.7 °C 14.2 °C 1009.3 hPa North 15.8 km/h 12.1 km/h 75% 0.0 mm 199 W/m2
16:49 18.7 °C 14.2 °C 1009.2 hPa North 16.6 km/h 29 km/h 75% 0.0 mm 181 W/m2
16:54 18.6 °C 14.1 °C 1009.2 hPa NNW 15.1 km/h 9.5 km/h 75% 0.0 mm 193 W/m2
16:59 18.5 °C 14.1 °C 1009.0 hPa North 17.1 km/h 13.2 km/h 75.3% 0.0 mm 171 W/m2
17:04 18.5 °C 14.2 °C 1008.9 hPa North 13.8 km/h 22.5 km/h 76% 0.0 mm 153 W/m2
17:08 18.6 °C 14.3 °C 1008.9 hPa North 15.6 km/h 12.6 km/h 76.5% 0.0 mm 142 W/m2
17:14 18.6 °C 14.4 °C 1009.0 hPa North 14.1 km/h 12.7 km/h 77% 0.0 mm 109 W/m2
17:19 18.6 °C 14.7 °C 1009.0 hPa NNE 13.3 km/h 19.3 km/h 78% 0.0 mm 91 W/m2
17:23 18.6 °C 14.7 °C 1009.1 hPa North 13.9 km/h 10.5 km/h 78% 0.0 mm 95 W/m2
17:29 18.7 °C 14.9 °C 1009.1 hPa North 16.7 km/h 10.6 km/h 78.8% 0.0 mm 105 W/m2
17:34 18.7 °C 14.9 °C 1009.0 hPa North 16.1 km/h 20.9 km/h 79% 0.0 mm 105 W/m2
17:39 18.7 °C 14.9 °C 1009.1 hPa NNE 12.4 km/h 11.6 km/h 79% 0.0 mm 102 W/m2
17:44 18.6 °C 15 °C 1009.1 hPa North 10.9 km/h 7.1 km/h 79.4% 0.0 mm 76 W/m2
17:49 18.6 °C 15.1 °C 1009.1 hPa NNE 8 km/h 20.9 km/h 80% 0.0 mm 56 W/m2
17:54 18.6 °C 15.2 °C 1009.1 hPa NNE 8.4 km/h 7.2 km/h 80.5% 0.0 mm 51 W/m2
17:59 18.6 °C 15.4 °C 1009.1 hPa North 13.9 km/h 7.7 km/h 81.5% 0.0 mm 44 W/m2
18:04 18.6 °C 15.5 °C 1009.0 hPa North 8.9 km/h 14.5 km/h 82.2% 0.0 mm 62 W/m2
18:09 18.6 °C 15.6 °C 1009.0 hPa North 6 km/h 7.4 km/h 83% 0.0 mm 58 W/m2
18:14 18.6 °C 15.8 °C 1009.0 hPa NNE 5.8 km/h 3.7 km/h 84% 0.0 mm 69 W/m2
18:19 18.6 °C 16 °C 1009.0 hPa North 3.6 km/h 2.4 km/h 84.6% 0.0 mm 69 W/m2
18:24 18.6 °C 16 °C 1009.0 hPa North 5.9 km/h 3.5 km/h 85% 0.0 mm 74 W/m2
18:29 18.6 °C 16.1 °C 1009.0 hPa North 2.8 km/h 2.1 km/h 85% 0.0 mm 60 W/m2
18:33 18.7 °C 16.1 °C 1009.1 hPa North 2.3 km/h 6.4 km/h 85% 0.0 mm 54 W/m2
18:39 18.7 °C 16.1 °C 1009.1 hPa North 1.8 km/h 1.4 km/h 85% 0.0 mm 54 W/m2
18:44 18.7 °C 16.2 °C 1009.0 hPa North 1.9 km/h 0.2 km/h 85% 0.0 mm 47 W/m2
18:49 18.7 °C 16.2 °C 1009.0 hPa North 2.3 km/h 3.2 km/h 85% 0.0 mm 44 W/m2
18:53 18.7 °C 16.2 °C 1009.0 hPa North 1.9 km/h 0.3 km/h 85% 0.0 mm 39 W/m2
18:59 18.6 °C 16.1 °C 1009.0 hPa ENE 5.2 km/h 5.8 km/h 85% 0.0 mm 54 W/m2
19:04 18.5 °C 15.7 °C 1009.0 hPa East 3.7 km/h 8 km/h 84% 0.0 mm 51 W/m2
19:08 18.5 °C 15.8 °C 1008.9 hPa East 2.8 km/h 2.3 km/h 84.5% 0.0 mm 65 W/m2
19:14 18.5 °C 15.8 °C 1008.9 hPa East 3 km/h 2.1 km/h 84.4% 0.0 mm 53 W/m2
19:19 18.5 °C 15.7 °C 1009.0 hPa Calm   3.2 km/h 84% 0.0 mm 51 W/m2
19:21 18.5 °C 15.7 °C 1009.1 hPa East 1.8 km/h 1.3 km/h 84% 0.0 mm 72 W/m2
19:29 18.4 °C 15.7 °C 1009.1 hPa SW 4.3 km/h 2.4 km/h 84% 0.0 mm 162 W/m2
19:34 18.4 °C 15.7 °C 1009.0 hPa SW 3.7 km/h 8 km/h 84% 0.0 mm 130 W/m2
19:39 18.5 °C 15.7 °C 1009.0 hPa ESE 5 km/h 5.3 km/h 84% 0.0 mm 69 W/m2
19:44 18.6 °C 15.8 °C 1009.0 hPa NNE 7.4 km/h 5.5 km/h 84% 0.0 mm 63 W/m2
19:49 18.6 °C 15.8 °C 1009.0 hPa NNE 5.8 km/h 9.7 km/h 84% 0.0 mm 62 W/m2
19:54 18.6 °C 15.7 °C 1009.0 hPa North 11.8 km/h 5.8 km/h 83.3% 0.0 mm 67 W/m2
19:59 18.6 °C 15.7 °C 1009.0 hPa NNE 5.6 km/h 5.5 km/h 83% 0.0 mm 74 W/m2
20:04 18.6 °C 15.7 °C 1009.0 hPa NNE 9.4 km/h 14.5 km/h 83% 0.0 mm 86 W/m2
20:09 18.6 °C 15.5 °C 1009.1 hPa NE 10.6 km/h 8.9 km/h 82.2% 0.0 mm 111 W/m2
20:14 18.6 °C 15.6 °C 1009.1 hPa ENE 14 km/h 9.3 km/h 82.4% 0.0 mm 120 W/m2
20:18 18.7 °C 15.7 °C 1009.0 hPa NE 12.9 km/h 14.5 km/h 83% 0.0 mm 109 W/m2
20:24 18.8 °C 15.8 °C 1008.9 hPa NNE 11 km/h 7.7 km/h 83% 0.0 mm 107 W/m2
20:29 18.8 °C 15.8 °C 1008.9 hPa North 9.8 km/h 9.3 km/h 83% 0.0 mm 104 W/m2
20:34 18.8 °C 15.9 °C 1008.9 hPa NE 9.7 km/h 12.9 km/h 83% 0.0 mm 98 W/m2
20:39 18.9 °C 15.9 °C 1008.9 hPa East 10.7 km/h 8.7 km/h 83% 0.0 mm 116 W/m2
20:44 19 °C 16 °C 1008.9 hPa NE 11.2 km/h 9.2 km/h 83% 0.0 mm 125 W/m2
20:49 19 °C 16.1 °C 1009.0 hPa ENE 10.3 km/h 16.1 km/h 83% 0.0 mm 111 W/m2
20:54 19.1 °C 16.1 °C 1008.9 hPa ENE 11 km/h 9.8 km/h 83% 0.0 mm 84 W/m2
20:59 19.1 °C 16.3 °C 1008.9 hPa NE 12.3 km/h 10.6 km/h 84% 0.0 mm 44 W/m2
21:04 19 °C 16.5 °C 1008.9 hPa NE 11.3 km/h 14.5 km/h 85% 0.0 mm 18 W/m2
21:09 18.9 °C 16.2 °C 1008.9 hPa ENE 9 km/h 7.6 km/h 84.7% 0.0 mm 16 W/m2
21:12 18.7 °C 15.9 °C 1008.9 hPa NNE 11.7 km/h 9.7 km/h 84% 0.0 mm 12 W/m2
Weerpagina Nieuwendam
Compliments of Weather Underground - 3 mb